Orbital Elements at Epoch 2459200.5 (2020-Dec-17.0) TDB
Reference: JPL 19 (heliocentric ecliptic J2000)
Element | Value | Uncertainty (1-sigma) | Units |
e | .1664846664777898 | 5.0865e-08 | |
a | 3.148408534588843 | 3.0397e-08 | au |
q | 2.624246789771993 | 1.5486e-07 | au |
i | 13.5371941432814 | 5.8795e-06 | deg |
node | 160.7373559056543 | 2.0524e-05 | deg |
peri | 168.1502683206852 | 2.7251e-05 | deg |
M | 252.9250048355068 | 2.1686e-05 | deg |
tp | 2459807.404854108237 (2022-Aug-15.90485411) | 0.00012884 | TDB |
period | 2040.492713946128 5.59 | 2.9551e-05 8.091e-08 | d yr |
n | .1764279762135453 | 2.5551e-09 | deg/d |
Q | 3.672570279405694 | 3.5458e-08 | au |
|
| | Orbit Determination Parameters
Additional Information
|